AAL705 EDDF-KCLT

Flight info

Callsign AAL705
Flight time N/A
Altitude 38000
Route OBOKA3M OBOKA Z29 TORNU DCT BATAK DCT GALSO Q63 ERING L179 UGBET Q60 OKSAW DCT BIBPE DCT OKTAD DCT AZCAL DCT MEDOG DCT KRAGY DCT PEMOB DCT BAKUR DCT SHA DCT UNBEG DCT NEBIN/M084F360 NATG TUDEP/N0488F360 N526A TOPPS DCT KAYCC DCT KYLOH DCT NELIE Q75 GVE DCT AIROW CHSLY6
Aircraft B772/H-SDE2E3FGHIJ5LORVWXY/LB1D1

Departure

Time N/A
Airport Frankfurt Main Airport (EDDF)

Arrival

Time 2026-05-03 20:33
Airport Charlotte Douglas International Airport (KCLT)
Time Latitude Longitude Altitude Speed Heading
2026-05-03 20:15 35.80606 -80.44013 18326 ft 324 kts 219°
2026-05-03 20:15 35.78714 -80.45507 17992 ft 320 kts 219°
2026-05-03 20:15 35.76863 -80.46968 17668 ft 316 kts 219°
2026-05-03 20:15 35.75017 -80.48427 17363 ft 312 kts 219°
2026-05-03 20:16 35.73192 -80.49873 17004 ft 311 kts 219°
2026-05-03 20:16 35.71380 -80.51305 16691 ft 309 kts 219°
2026-05-03 20:16 35.69577 -80.52729 16378 ft 306 kts 219°
2026-05-03 20:16 35.67781 -80.54128 16086 ft 304 kts 218°
2026-05-03 20:17 35.65985 -80.55492 15797 ft 303 kts 217°
2026-05-03 20:17 35.64199 -80.56842 15516 ft 301 kts 217°
2026-05-03 20:17 35.62415 -80.58191 15232 ft 300 kts 217°
2026-05-03 20:17 35.60748 -80.59454 14968 ft 300 kts 217°
2026-05-03 20:18 35.58973 -80.60799 14689 ft 299 kts 217°
2026-05-03 20:18 35.57204 -80.62140 14410 ft 300 kts 217°
2026-05-03 20:18 35.55427 -80.63485 14136 ft 300 kts 217°
2026-05-03 20:18 35.53647 -80.64830 13844 ft 300 kts 217°
2026-05-03 20:19 35.51878 -80.66150 13529 ft 300 kts 217°
2026-05-03 20:19 35.50094 -80.67479 13236 ft 300 kts 217°
2026-05-03 20:19 35.48316 -80.68802 12933 ft 299 kts 217°
2026-05-03 20:19 35.46537 -80.70127 12661 ft 298 kts 217°
2026-05-03 20:20 35.44769 -80.71445 12376 ft 297 kts 217°
2026-05-03 20:20 35.43008 -80.72755 12093 ft 296 kts 217°
2026-05-03 20:20 35.41255 -80.74058 11831 ft 293 kts 217°
2026-05-03 20:20 35.39541 -80.75330 11587 ft 290 kts 216°
2026-05-03 20:21 35.37800 -80.76626 11357 ft 288 kts 216°
2026-05-03 20:21 35.36117 -80.77876 11120 ft 286 kts 216°
2026-05-03 20:21 35.34434 -80.79125 10892 ft 280 kts 216°
2026-05-03 20:21 35.32786 -80.80347 10661 ft 275 kts 216°
2026-05-03 20:22 35.31159 -80.81553 10428 ft 271 kts 216°
2026-05-03 20:22 35.29557 -80.82738 10183 ft 267 kts 216°
2026-05-03 20:22 35.27886 -80.83622 9981 ft 264 kts 195°
2026-05-03 20:22 35.26037 -80.83592 9577 ft 266 kts 179°
2026-05-03 20:23 35.24169 -80.83403 9176 ft 268 kts 180°
2026-05-03 20:23 35.22354 -80.83247 8966 ft 255 kts 180°
2026-05-03 20:23 35.20620 -80.83101 8644 ft 245 kts 180°
2026-05-03 20:23 35.18917 -80.82958 8337 ft 245 kts 180°
2026-05-03 20:24 35.17237 -80.82818 8112 ft 241 kts 180°
2026-05-03 20:24 35.15575 -80.82679 7882 ft 238 kts 179°
2026-05-03 20:24 35.13919 -80.82541 7604 ft 239 kts 180°
2026-05-03 20:24 35.12260 -80.82403 7337 ft 238 kts 179°
2026-05-03 20:25 35.10616 -80.82264 7055 ft 237 kts 179°
2026-05-03 20:25 35.08974 -80.82128 6820 ft 235 kts 179°
2026-05-03 20:25 35.07349 -80.82011 6558 ft 233 kts 181°
2026-05-03 20:25 35.05734 -80.81941 6292 ft 232 kts 181°
2026-05-03 20:26 35.04122 -80.81868 6008 ft 231 kts 180°
2026-05-03 20:26 35.02526 -80.81792 5738 ft 229 kts 180°
2026-05-03 20:26 35.00945 -80.81710 5467 ft 227 kts 180°
2026-05-03 20:26 34.99369 -80.81613 5185 ft 225 kts 180°
2026-05-03 20:27 34.97898 -80.81844 4948 ft 213 kts 208°
2026-05-03 20:27 34.96834 -80.82985 4708 ft 202 kts 243°
2026-05-03 20:27 34.96533 -80.84598 4431 ft 196 kts 277°
2026-05-03 20:27 34.97085 -80.86080 4142 ft 196 kts 312°
2026-05-03 20:28 34.98137 -80.87157 3734 ft 201 kts 321°
2026-05-03 20:28 34.99271 -80.88168 3423 ft 201 kts 322°
2026-05-03 20:28 35.00396 -80.89161 3156 ft 198 kts 322°
2026-05-03 20:28 35.01494 -80.90125 3107 ft 191 kts 322°
2026-05-03 20:29 35.02558 -80.91054 3083 ft 182 kts 322°
2026-05-03 20:29 35.03684 -80.91742 3002 ft 185 kts 346°
2026-05-03 20:29 35.04976 -80.92002 3050 ft 191 kts 348°
2026-05-03 20:29 35.06283 -80.92206 2995 ft 186 kts 351°
2026-05-03 20:30 35.07564 -80.92331 2992 ft 184 kts 352°
2026-05-03 20:30 35.08836 -80.92444 3004 ft 184 kts 353°
2026-05-03 20:30 35.10153 -80.92558 2777 ft 192 kts 352°
2026-05-03 20:30 35.11444 -80.92669 2558 ft 177 kts 353°
2026-05-03 20:31 35.12641 -80.92769 2277 ft 167 kts 352°
2026-05-03 20:31 35.13758 -80.92868 2048 ft 157 kts 353°
2026-05-03 20:31 35.14871 -80.92961 1870 ft 161 kts 353°
2026-05-03 20:31 35.15974 -80.93058 1597 ft 156 kts 353°
2026-05-03 20:32 35.17053 -80.93153 1410 ft 160 kts 353°
2026-05-03 20:32 35.18142 -80.93244 1110 ft 156 kts 349°
2026-05-03 20:32 35.19200 -80.93321 936 ft 150 kts 350°
2026-05-03 20:32 35.20241 -80.93421 762 ft 150 kts 351°
2026-05-03 20:33 35.21199 -80.93516 739 ft 115 kts 356°
2026-05-03 20:33 35.21742 -80.93556 740 ft 48 kts 355°
2026-05-03 20:33 35.21974 -80.93579 740 ft 22 kts 350°
2026-05-03 20:33 35.22004 -80.93669 737 ft 12 kts 238°
2026-05-03 20:34 35.21950 -80.93747 737 ft 12 kts 228°
2026-05-03 20:34 35.21893 -80.93823 737 ft 13 kts 228°
2026-05-03 20:34 35.21883 -80.93909 736 ft 9 kts 323°
2026-05-03 20:34 35.21937 -80.93887 737 ft 9 kts 44°
2026-05-03 20:35 35.21981 -80.93830 737 ft 9 kts 46°
2026-05-03 20:35 35.22044 -80.93802 737 ft 10 kts
2026-05-03 20:35 35.22116 -80.93807 737 ft 11 kts 349°
2026-05-03 20:35 35.22175 -80.93842 737 ft 9 kts 312°
2026-05-03 20:36 35.22187 -80.93905 737 ft 2 kts 267°
2026-05-03 20:36 35.22180 -80.93920 737 ft 2 kts 231°
2026-05-03 20:36 35.22165 -80.93931 737 ft 3 kts 208°
2026-05-03 20:36 35.22148 -80.93939 737 ft 1 kts 196°
2026-05-03 20:37 35.22138 -80.93941 737 ft 1 kts 192°
2026-05-03 20:37 35.22133 -80.93942 737 ft 0 kts 192°